[[{"header":{"parameterUnit":"m.s-1","parameterCategory":1,"la1":30.2991,"la2":30.254,"lo1":-89.0895,"lo2":-89.0444,"dy":0.0017,"dx":0.0017,"nx":28,"ny":28,"refTime":"2024-10-12T21:00:00:Z","depth":0,"parameterNumber":2,"parameterNumberName":"U-component_of_WINDS"},"data":[0,0,0,0,0,0,0,0,0,0,0,0,0,0,0,0,0,0,0,0,0,0,0,0,0,0,0,0,0,0,0,0,0,0,0,0,0,0,0,0,0,0,0,0,0,0,0,0,0,0,0,0,0,0,0,0,0,0,5.0236,5.0237,0,5.0392,5.0394,5.0396,5.0325,5.0321,5.0317,5.0313,5.0479,5.0486,5.0494,0,0,0,0,0,0,0,0,0,0,0,0,0,4.988,4.9887,5.0235,5.0237,5.0239,5.0392,5.0394,5.0396,5.0325,5.0321,5.0316,5.0311,5.0476,5.0485,5.0495,0,0,0,0,0,0,0,0,0,0,0,0,0,5.0035,4.9889,5.0235,5.0222,5.0223,5.0391,5.0394,5.0397,5.0326,5.032,5.0315,5.0309,5.0473,5.0485,5.0496,5.0688,0,0,5.0533,5.0539,0,0,0,0,0,0,0,0,5.0027,5.0048,5.0222,5.0223,5.0224,5.0333,5.0329,5.0495,5.0328,5.0287,5.0313,5.0306,5.0435,5.045,5.0492,5.0696,5.0703,5.0534,5.0542,5.0547,5.055,0,0,0,0,0,0,0,5.0016,5.0041,5.0297,5.0225,5.0226,5.021,5.0226,5.036,5.0392,5.029,5.0285,5.0305,5.0435,5.0481,5.0496,5.0706,5.0534,5.0545,5.0552,5.0557,5.1075,5.1081,0,0,0,0,0,0,5.0005,5.0033,5.0292,5.0302,5.0109,5.0221,5.0239,5.0304,5.0391,5.0398,5.031,5.0301,5.0463,5.0482,5.0501,5.0731,5.0547,5.0558,5.0565,5.1069,5.1076,5.1083,0,0,0,0,0,0,4.9997,5.0028,5.0286,5.0166,5.0198,5.0234,5.0307,5.031,5.0356,5.0405,5.0411,5.0351,5.0459,5.0484,5.0642,5.0736,5.0564,5.0575,5.1061,5.1071,5.108,5.1194,0,0,0,0,0,0,4.9987,5.0026,5.0098,5.0168,5.0204,5.0423,5.0313,5.0317,5.0377,5.0367,5.0445,5.0453,5.0457,5.0624,5.0654,5.075,5.0584,5.1053,5.1065,5.1077,5.1182,5.1206,5.1227,0,0,0,0,0,4.9975,5.0125,5.0102,5.0134,5.0295,5.0429,5.045,5.045,5.0384,5.0458,5.0489,5.045,5.0721,5.0641,5.0674,5.0775,5.1047,5.1062,5.1076,5.1172,5.1201,5.1227,0,0,0,0,0,0,5.0068,5.0134,5.011,5.0287,5.0353,5.0416,5.0509,5.0481,5.0568,5.0555,5.0553,5.0572,5.0735,5.0771,5.068,5.0965,5.0874,5.0896,5.0936,5.0964,5.0987,5.0975,5.0594,0,0,0,0,0,5.0108,5.021,5.0263,5.0415,5.0449,5.0474,5.0532,5.0526,5.0594,5.0622,5.0665,5.0735,5.0835,5.0902,5.0997,5.1187,5.1203,5.1272,5.1295,5.1313,5.1332,5.1435,5.1466,5.1132,5.1131,5.1131,0,0,5.0194,5.0243,5.0308,5.0434,5.0484,5.0591,5.0497,5.0614,5.0693,5.0641,5.0791,5.0826,5.0903,5.1077,5.1156,5.1112,5.1428,5.1332,5.1346,5.1355,5.1453,5.1485,5.1513,5.1142,5.114,5.1138,0,0,5.0405,5.0452,5.0583,5.0635,5.0711,5.0727,5.0758,5.0827,5.0847,5.0998,5.096,5.1056,5.1229,5.1286,5.1337,5.1569,5.1536,5.1601,5.1719,5.1819,5.1846,5.1869,5.1952,5.1982,5.1619,5.162,5.162,0,5.0503,5.0659,5.0654,5.0774,5.0831,5.0786,5.092,5.0971,5.1076,5.1117,5.1065,5.1282,5.1331,5.1517,5.1574,5.1617,5.1654,5.1591,5.1842,5.1865,5.1887,5.1966,5.1997,5.1627,5.1626,5.1625,5.1625,0,5.0776,5.0885,5.0982,5.1082,5.115,5.1276,5.1292,5.1362,5.135,5.1371,5.1526,5.1583,5.1689,5.1733,5.1724,5.192,5.189,5.1841,5.1749,5.1926,5.2,5.2031,5.1637,5.1635,5.1632,5.1631,0,0,5.1049,5.1144,5.118,5.1224,5.1305,5.1391,5.1515,5.1617,5.1677,5.1751,5.1856,5.2004,5.1958,5.2017,5.2014,5.2102,5.2282,5.2042,5.2043,5.2084,5.2501,5.2537,5.2572,5.226,5.2266,5.2271,5.2494,0,5.1266,5.1481,5.148,5.168,5.1782,5.1741,5.1849,5.1912,5.1935,5.2026,5.2052,5.2157,5.2089,5.2124,5.2209,5.2242,5.2365,5.2225,5.2359,5.2364,5.234,5.261,5.2649,5.2857,5.2523,5.2528,5.2531,0,5.1547,5.1628,5.1837,5.1903,5.1945,5.2043,5.2136,5.2223,5.2293,5.2304,5.2369,5.2352,5.248,5.2385,5.2561,5.2466,5.2521,5.2545,5.2553,5.2565,5.2458,5.263,5.2924,5.2955,5.2577,5.2573,5.257,0,5.1725,5.1887,5.2033,5.2073,5.2153,5.2222,5.2259,5.2323,5.2384,5.2467,5.2506,5.2603,5.2657,5.2733,5.2743,5.2672,5.2921,5.2826,5.2934,5.2934,5.2988,5.2985,5.3294,5.3024,5.3023,5.3023,5.3022,0,5.1967,5.2097,5.2114,5.2204,5.2348,5.2347,5.2491,5.2522,5.2579,5.2675,5.2647,5.2738,5.2746,5.284,5.2849,5.2994,5.3019,5.3032,5.3033,5.3035,5.3033,5.307,5.3056,5.3031,5.3029,5.3028,5.3026,0,5.2191,5.2207,5.2364,5.2426,5.2445,5.2549,5.2603,5.269,5.271,5.2832,5.2861,5.2894,5.3003,5.3021,5.315,5.3156,5.333,5.3316,5.3306,5.3304,5.3411,5.34,5.3755,5.3802,5.3501,5.3504,5.3506,0,5.2344,5.2443,5.2515,5.2577,5.2617,5.2716,5.2778,5.2781,5.2847,5.2934,5.301,5.3116,5.3201,5.3379,5.3415,5.3514,5.3502,5.362,5.3517,5.3515,5.3504,5.3498,5.3508,5.3639,5.3643,5.3645,5.3648,0,5.2614,5.2617,5.2706,5.2799,5.2873,5.2946,5.3016,5.3068,5.308,5.3156,5.3266,5.3332,5.3463,5.3569,5.3667,5.3707,5.368,5.368,5.371,5.3713,5.3702,5.3709,5.3359,5.3671,5.3669,5.3667,5.3666,5.3665,5.2807,5.2893,5.2957,5.3057,5.3109,5.3175,5.3258,5.3289,5.338,5.3486,5.3482,5.3604,5.3672,5.38,5.3847,5.3943,5.3905,5.3949,5.396,5.3971,5.3981,5.3687,5.3961,5.396,5.396,5.3959,5.3959,0,5.3075,5.3114,5.3207,5.3303,5.3383,5.3348,5.3423,5.3493,5.3599,5.3664,5.3748,5.3875,5.3978,5.4022,5.4123,5.4192,5.4182,5.4218,5.4213,5.4223,5.4009,5.3973,5.4224,5.4224,5.4224,5.4224,5.4224,5.4224,5.3224,5.3367,5.3378,5.3546,5.3585,5.3702,5.3748,5.3808,5.386,5.4003,5.4087,5.4114,5.4171,5.4276,5.4369,5.438,5.4418,5.446,5.4465,5.4265,5.4238,5.4212,5.4178,5.4469,5.4469,5.4671,5.4673,5.4674]},{"header":{"parameterUnit":"m.s-1","parameterCategory":1,"la1":30.2991,"la2":30.254,"lo1":-89.0895,"lo2":-89.0444,"dy":0.0017,"dx":0.0017,"nx":28,"ny":28,"refTime":"2024-10-12T21:00:00:Z","depth":0,"parameterNumber":3,"parameterNumberName":"V-component_of_WINDS"},"data":[0,0,0,0,0,0,0,0,0,0,0,0,0,0,0,0,0,0,0,0,0,0,0,0,0,0,0,0,0,0,0,0,0,0,0,0,0,0,0,0,0,0,0,0,0,0,0,0,0,0,0,0,0,0,0,0,0,0,-0.5424,-0.5424,0,-0.5446,-0.5446,-0.5447,-0.5439,-0.5439,-0.5438,-0.5438,-0.5461,-0.5462,-0.5463,0,0,0,0,0,0,0,0,0,0,0,0,0,-0.5377,-0.5378,-0.5424,-0.5424,-0.5425,-0.5446,-0.5446,-0.5447,-0.5439,-0.5439,-0.5438,-0.5438,-0.546,-0.5461,-0.5463,0,0,0,0,0,0,0,0,0,0,0,0,0,-0.5398,-0.5378,-0.5424,-0.5424,-0.5424,-0.5446,-0.5446,-0.5447,-0.5439,-0.5439,-0.5438,-0.5437,-0.546,-0.5461,-0.5463,-0.5487,0,0,-0.5468,-0.5468,0,0,0,0,0,0,0,0,-0.5397,-0.54,-0.5423,-0.5424,-0.5424,-0.5439,-0.5438,-0.546,-0.544,-0.5434,-0.5438,-0.5437,-0.5454,-0.5456,-0.5462,-0.5488,-0.5489,-0.5468,-0.5469,-0.5469,-0.547,0,0,0,0,0,0,0,-0.5395,-0.5399,-0.5433,-0.5424,-0.5424,-0.5423,-0.5425,-0.5442,-0.5448,-0.5434,-0.5434,-0.5436,-0.5454,-0.546,-0.5462,-0.5489,-0.5468,-0.5469,-0.547,-0.5471,-0.5537,-0.5538,0,0,0,0,0,0,-0.5393,-0.5397,-0.5432,-0.5433,-0.5408,-0.5424,-0.5426,-0.5435,-0.5447,-0.5449,-0.5437,-0.5436,-0.5458,-0.546,-0.5463,-0.5492,-0.5469,-0.5471,-0.5472,-0.5536,-0.5537,-0.5538,0,0,0,0,0,0,-0.5392,-0.5397,-0.5431,-0.5415,-0.542,-0.5426,-0.5435,-0.5436,-0.5442,-0.5449,-0.545,-0.5442,-0.5457,-0.5461,-0.5481,-0.5493,-0.5472,-0.5473,-0.5535,-0.5537,-0.5538,-0.5551,0,0,0,0,0,0,-0.5391,-0.5396,-0.5405,-0.5416,-0.542,-0.5449,-0.5436,-0.5437,-0.5445,-0.5444,-0.5455,-0.5456,-0.5457,-0.5479,-0.5483,-0.5495,-0.5474,-0.5534,-0.5536,-0.5537,-0.5549,-0.5552,-0.5555,0,0,0,0,0,-0.5389,-0.5408,-0.5406,-0.541,-0.5432,-0.5449,-0.5452,-0.5453,-0.5446,-0.5455,-0.546,-0.5455,-0.5491,-0.5481,-0.5485,-0.5498,-0.5534,-0.5535,-0.5537,-0.5548,-0.5552,-0.5555,0,0,0,0,0,0,-0.5399,-0.5409,-0.5407,-0.5429,-0.5439,-0.5448,-0.546,-0.5457,-0.5469,-0.5467,-0.5468,-0.5471,-0.5492,-0.5497,-0.5486,-0.5522,-0.5511,-0.5514,-0.5518,-0.5521,-0.5524,-0.5522,-0.5476,0,0,0,0,0,-0.5404,-0.5417,-0.5425,-0.5444,-0.5449,-0.5454,-0.5461,-0.5462,-0.5471,-0.5475,-0.5481,-0.5491,-0.5505,-0.5513,-0.5526,-0.555,-0.5553,-0.5561,-0.5564,-0.5566,-0.5568,-0.5582,-0.5586,-0.5544,-0.5544,-0.5544,0,0,-0.5413,-0.5421,-0.5429,-0.5446,-0.5453,-0.5468,-0.5457,-0.5472,-0.5483,-0.5477,-0.5497,-0.5502,-0.5513,-0.5536,-0.5546,-0.554,-0.558,-0.5568,-0.557,-0.5571,-0.5584,-0.5588,-0.5592,-0.5545,-0.5545,-0.5545,0,0,-0.5438,-0.5445,-0.5462,-0.5469,-0.548,-0.5483,-0.5487,-0.5498,-0.5501,-0.5521,-0.5517,-0.553,-0.5553,-0.5561,-0.5568,-0.5597,-0.5594,-0.5601,-0.5615,-0.5629,-0.5632,-0.5635,-0.5645,-0.5649,-0.5604,-0.5604,-0.5604,0,-0.5449,-0.5469,-0.5471,-0.5486,-0.5494,-0.549,-0.5507,-0.5515,-0.5529,-0.5535,-0.5529,-0.5558,-0.5565,-0.559,-0.5597,-0.5603,-0.5608,-0.56,-0.5631,-0.5634,-0.5637,-0.5647,-0.5651,-0.5604,-0.5604,-0.5604,-0.5604,0,-0.5482,-0.5497,-0.5509,-0.5523,-0.5533,-0.5549,-0.5553,-0.5562,-0.5562,-0.5566,-0.5586,-0.5595,-0.5609,-0.5615,-0.5615,-0.564,-0.5636,-0.5631,-0.562,-0.5642,-0.5651,-0.5655,-0.5606,-0.5605,-0.5605,-0.5605,0,0,-0.5513,-0.5528,-0.5533,-0.5539,-0.5552,-0.5563,-0.5579,-0.5594,-0.5602,-0.5612,-0.5626,-0.5646,-0.5642,-0.565,-0.565,-0.5662,-0.5685,-0.5655,-0.5655,-0.566,-0.5713,-0.5717,-0.5722,-0.5683,-0.5684,-0.5684,-0.5712,0,-0.5539,-0.5567,-0.5569,-0.5595,-0.5609,-0.5606,-0.562,-0.5629,-0.5634,-0.5646,-0.5651,-0.5665,-0.5658,-0.5663,-0.5674,-0.568,-0.5695,-0.5678,-0.5696,-0.5697,-0.5693,-0.5727,-0.5731,-0.5757,-0.5716,-0.5717,-0.5717,0,-0.5572,-0.5584,-0.5611,-0.5622,-0.5628,-0.5641,-0.5655,-0.5666,-0.5677,-0.568,-0.5689,-0.5688,-0.5706,-0.5694,-0.5719,-0.5706,-0.5714,-0.5718,-0.5719,-0.5721,-0.5708,-0.5729,-0.5765,-0.5769,-0.5723,-0.5722,-0.5722,0,-0.5592,-0.5615,-0.5634,-0.564,-0.5653,-0.5662,-0.5668,-0.5678,-0.5687,-0.5699,-0.5705,-0.5719,-0.5726,-0.5738,-0.5741,-0.5732,-0.5765,-0.5754,-0.5768,-0.5768,-0.5774,-0.5774,-0.5812,-0.578,-0.578,-0.578,-0.5779,0,-0.5621,-0.5638,-0.5643,-0.5655,-0.5674,-0.5676,-0.5695,-0.5701,-0.571,-0.5723,-0.5721,-0.5734,-0.5738,-0.5751,-0.5754,-0.5774,-0.5777,-0.578,-0.578,-0.578,-0.5779,-0.5785,-0.5783,-0.5781,-0.578,-0.578,-0.578,0,-0.5646,-0.565,-0.5671,-0.5682,-0.5685,-0.5699,-0.5708,-0.572,-0.5724,-0.5741,-0.5745,-0.5752,-0.5768,-0.5772,-0.5791,-0.5793,-0.5816,-0.5815,-0.5813,-0.5813,-0.5826,-0.5825,-0.5869,-0.5875,-0.5839,-0.5839,-0.5839,0,-0.5664,-0.5677,-0.5689,-0.5698,-0.5704,-0.5718,-0.5727,-0.573,-0.5739,-0.5753,-0.5763,-0.5779,-0.5791,-0.5817,-0.5823,-0.5838,-0.5837,-0.5852,-0.5839,-0.5839,-0.5838,-0.5837,-0.5838,-0.5854,-0.5855,-0.5855,-0.5855,0,-0.5695,-0.5697,-0.5709,-0.5723,-0.5734,-0.5745,-0.5756,-0.5763,-0.5768,-0.5778,-0.5794,-0.5804,-0.5824,-0.5839,-0.5854,-0.5861,-0.5859,-0.5859,-0.5863,-0.5863,-0.5861,-0.5862,-0.5819,-0.5858,-0.5858,-0.5857,-0.5857,-0.5857,-0.5717,-0.5728,-0.5739,-0.5754,-0.5762,-0.5772,-0.5784,-0.579,-0.5803,-0.5819,-0.582,-0.5838,-0.5849,-0.5869,-0.5876,-0.589,-0.5886,-0.5892,-0.5893,-0.5894,-0.5896,-0.5859,-0.5893,-0.5893,-0.5893,-0.5893,-0.5893,0,-0.5748,-0.5755,-0.5768,-0.5783,-0.5795,-0.5792,-0.5804,-0.5814,-0.5829,-0.584,-0.5852,-0.5871,-0.5887,-0.5895,-0.591,-0.592,-0.592,-0.5924,-0.5923,-0.5925,-0.5898,-0.5894,-0.5924,-0.5924,-0.5924,-0.5924,-0.5924,-0.5924,-0.5766,-0.5785,-0.5788,-0.5812,-0.5819,-0.5836,-0.5843,-0.5853,-0.5861,-0.5882,-0.5895,-0.59,-0.591,-0.5926,-0.594,-0.5942,-0.5948,-0.5953,-0.5955,-0.593,-0.5927,-0.5924,-0.5919,-0.5954,-0.5954,-0.598,-0.598,-0.5981]}]]